Content
SEND FEEDBACK

Daily
Averages
Monthly
Summary
United States of America

MT OLIVE, ILLINOIS


Home > North America > United States > Illinois
Elevation: 680 feet     Latitude: 39 04N     Longitude: 089 43W

WEATHER
 
SELECT A DAY
Number of Records: 246,965;   Date Range: 8/31/04 - 10/30/14
 
SHARE

PRINT THIS DATA

[ ← Previous Day ]
WEATHER ALMANAC - JANUARY 31, 2013
[ Next Day → ]
[ °C ]   °F
Weather ElementAverageHighLow
Temperature22 °F28.9 °F (12:15 pm) (4:35 pm)
Dewpoint13 °F22.6 °F (10:55 am)-1.3 °F (10:55 pm)
Humidity68 %86 % (11:35 pm)57 % (1:55 pm)
Barometer29.57 in30.34 in (11:55 pm) (7:00 pm)
Wind Speed18.6 mph26.5 mph (4:15 pm)
Wind Gust34.5 mph (4:35 pm)
Weather ElementAverage
Visibility9.9 mi
Wind DirectionWNW (279.5 °)

Weather ElementTotal
Precipitation---
Heating Degree Days50.6 (Base 65)
Averaged from 65 records on January 31, 2013
WEATHER CONDITIONS BREAKOUT
WIND DIRECTION BREAKOUT
WEATHER BY HOUR - JANUARY 31, 2013
[ °C ]   °F
Local TimeTemperatureDewpointHumidityBarometerVisibilityWind DirectionWind SpeedGust SpeedPrecipitationEventsConditions
12:55 AM25.0 °F16.9 °F71 %29.89 in10.0 miWNW (300°)17.3 mph31.1 mphOvercast
1:15 AM24.6 °F16.9 °F72 %29.88 in10.0 miWNW (300°)17.3 mphOvercast
1:35 AM25.2 °F16.0 °F68 %29.89 in10.0 miWNW (300°)15.0 mphOvercast
1:55 AM25.2 °F15.6 °F67 %29.90 in10.0 miWNW (290°)12.7 mphOvercast
2:15 AM25.2 °F15.3 °F66 %29.90 in10.0 miWest (280°)18.4 mph25.3 mphOvercast
2:35 AM25.3 °F16.3 °F69 %29.91 in10.0 miWest (270°)15.0 mph23.0 mphOvercast
2:55 AM25.5 °F16.7 °F69 %29.91 in10.0 miWest (260°)16.1 mph21.9 mphOvercast
3:15 AM25.5 °F17.1 °F70 %29.90 in10.0 miWest (260°)17.3 mph24.2 mphOvercast
3:35 AM25.5 °F16.2 °F68 %29.90 in10.0 miWest (270°)20.7 mph28.8 mphOvercast
3:55 AM25.5 °F15.3 °F65 %29.90 in10.0 miWest (260°)18.4 mph28.8 mphOvercast
4:15 AM25.5 °F14.9 °F64 %29.90 in10.0 miWest (270°)12.7 mph21.9 mphOvercast
4:35 AM25.5 °F14.5 °F63 %29.90 in10.0 miWest (260°)17.3 mph23.0 mphOvercast
4:55 AM25.2 °F15.3 °F66 %29.90 in10.0 miWest (260°)12.7 mph24.2 mphMostly Cloudy
5:15 AM24.8 °F16.5 °F71 %29.90 in10.0 miWSW (250°)12.7 mphScattered Clouds
5:35 AM24.8 °F18.3 °F76 %29.91 in10.0 miWSW (250°)16.1 mphScattered Clouds
5:55 AM25.2 °F19.0 °F78 %29.91 in10.0 miWSW (250°)15.0 mph20.7 mphOvercast
6:15 AM25.2 °F19.2 °F78 %29.92 in10.0 miWSW (250°)17.3 mph20.7 mphOvercast
6:35 AM25.5 °F18.3 °F74 %29.92 in10.0 miWSW (250°)16.1 mph19.6 mphOvercast
6:55 AM25.7 °F17.2 °F70 %29.93 in10.0 miWest (260°)18.4 mph24.2 mphOvercast
7:15 AM25.7 °F16.9 °F69 %29.93 in10.0 miWest (260°)12.7 mphOvercast
7:55 AM25.5 °F16.5 °F69 %29.95 in10.0 miWSW (250°)20.7 mph26.5 mphMostly Cloudy
8:15 AM25.7 °F17.1 °F70 %29.95 in10.0 miWSW (250°)16.1 mph26.5 mphMostly Cloudy
8:35 AM25.9 °F17.1 °F69 %29.96 in10.0 miWest (260°)16.1 mph26.5 mphOvercast
8:55 AM26.4 °F17.8 °F70 %29.97 in10.0 miWest (260°)18.4 mphOvercast
9:15 AM26.4 °F17.6 °F69 %29.97 in10.0 miWest (260°)16.1 mph23.0 mphOvercast
9:35 AM26.8 °F18.0 °F69 %29.98 in10.0 miWSW (250°)18.4 mph25.3 mphOvercast
9:55 AM27.1 °F18.7 °F70 %29.99 in10.0 miWest (260°)21.9 mph25.3 mphOvercast
10:15 AM27.5 °F21.4 °F78 %30.00 in10.0 miWest (260°)20.7 mphOvercast
10:35 AM27.5 °F19.2 °F71 %30.00 in10.0 miWSW (250°)21.9 mphSnowLight Snow
10:55 AM27.7 °F22.6 °F81 %30.01 in5.0 miWSW (250°)18.4 mph24.2 mphSnowLight Snow
11:15 AM28.0 °F20.7 °F74 %30.00 in10.0 miWSW (250°)20.7 mph24.2 mphMostly Cloudy
11:35 AM28.0 °F20.1 °F72 %30.00 in10.0 miWest (260°)18.4 mph24.2 mphMostly Cloudy
11:55 AM28.2 °F19.8 °F71 %29.99 in10.0 miWest (260°)21.9 mph27.6 mphMostly Cloudy
12:15 PM28.9 °F21.0 °F72 %29.98 in10.0 miWest (260°)19.6 mph24.2 mphOvercast
12:35 PM28.4 °F20.1 °F71 %29.99 in10.0 miWest (280°)17.3 mph23.0 mphOvercast
12:55 PM28.4 °F19.0 °F68 %29.98 in10.0 miWest (270°)16.1 mphOvercast
1:15 PM28.4 °F19.2 °F69 %29.98 in10.0 miWest (280°)19.6 mphOvercast
1:35 PM28.4 °F18.3 °F66 %29.97 in10.0 miWest (280°)19.6 mphMostly Cloudy
1:55 PM28.8 °F15.3 °F57 %29.97 in10.0 miWest (280°)18.4 mph26.5 mphScattered Clouds
2:15 PM28.4 °F17.4 °F63 %29.98 in10.0 miWNW (290°)16.1 mphMostly Cloudy
2:35 PM28.2 °F16.3 °F61 %29.99 in10.0 miWNW (300°)19.6 mph23.0 mphOvercast
2:55 PM27.1 °F13.6 °F57 %30.01 in10.0 miWNW (290°)21.9 mph25.3 mphOvercast
3:15 PM25.3 °F14.4 °F63 %30.02 in10.0 miNW (310°)18.4 mph26.5 mphOvercast
4:15 PM21.4 °F11.8 °F67 %30.08 in10.0 miNW (310°)26.5 mph29.9 mphOvercast
4:35 PM0.0 °F0.0 °F30.09 in10.0 miNW (310°)23.0 mph34.5 mphOvercast
4:55 PM19.6 °F7.7 °F60 %30.11 in10.0 miNW (310°)23.0 mph33.4 mphOvercast
5:15 PM18.5 °F8.4 °F65 %30.12 in10.0 miWNW (300°)20.7 mph28.8 mphMostly Cloudy
5:35 PM17.1 °F6.3 °F63 %30.13 in10.0 miNW (310°)21.9 mph29.9 mphScattered Clouds
5:55 PM16.7 °F6.6 °F65 %30.15 in10.0 miNW (310°)20.7 mph27.6 mphClear
6:15 PM16.2 °F5.5 °F63 %30.16 in10.0 miWNW (300°)23.0 mph31.1 mphClear
6:35 PM15.6 °F5.0 °F63 %30.18 in10.0 miWNW (300°)17.3 mph28.8 mphClear
6:55 PM15.3 °F5.7 °F66 %30.18 in10.0 miNW (310°)17.3 mph21.9 mphScattered Clouds
7:15 PM15.4 °F5.4 °F64 %30.19 in10.0 miWNW (300°)18.4 mph26.5 mphScattered Clouds
7:35 PM15.6 °F5.2 °F63 %30.20 in10.0 miWNW (300°)20.7 mph31.1 mphMostly Cloudy
8:15 PM14.9 °F6.3 °F69 %30.22 in10.0 miWNW (300°)24.2 mph32.2 mphOvercast
8:35 PM14.0 °F2.7 °F61 %30.24 in10.0 miWNW (290°)24.2 mph32.2 mphMostly Cloudy
8:55 PM13.5 °F4.6 °F68 %30.25 in10.0 miNW (310°)18.4 mph25.3 mphMostly Cloudy
9:35 PM11.1 °F2.1 °F67 %30.28 in10.0 miWNW (300°)21.9 mph31.1 mphScattered Clouds
9:55 PM10.4 °F1.2 °F66 %30.29 in10.0 miNW (310°)18.4 mph26.5 mphClear
10:15 PM9.9 °F-0.2 °F64 %30.30 in10.0 miNW (310°)17.3 mph27.6 mphClear
10:35 PM10.0 °F0.0 °F64 %30.31 in10.0 miWNW (300°)18.4 mph24.2 mphClear
10:55 PM9.5 °F-1.3 °F62 %30.32 in10.0 miWNW (300°)16.1 mph27.6 mphScattered Clouds
11:15 PM10.0 °F0.5 °F65 %30.33 in10.0 miWNW (290°)23.0 mphScattered Clouds
11:35 PM9.5 °F6.1 °F86 %WNW (300°)19.6 mph28.8 mph
11:55 PM9.3 °F-0.2 °F65 %30.34 in10.0 miWNW (290°)20.7 mph27.6 mphScattered Clouds
Hourly data recorded from K3LF, located miles away from Mt Olive, Illinois







STORIES FROM OUR PARTNERS